Year,Month,Day,Hour,Minute,Value (Times are PST for temperature in C)
2018,08,08,00,00,16.60
2018,08,08,00,01,16.60
2018,08,08,00,02,16.60
2018,08,08,00,03,16.60
2018,08,08,00,04,16.60
2018,08,08,00,05,16.60
2018,08,08,00,06,16.60
2018,08,08,00,07,16.60
2018,08,08,00,08,16.60
2018,08,08,00,09,16.60
2018,08,08,00,10,16.60
2018,08,08,00,11,16.60
2018,08,08,00,12,16.60
2018,08,08,00,13,16.60
2018,08,08,00,14,16.60
2018,08,08,00,15,16.60
2018,08,08,00,16,16.60
2018,08,08,00,17,16.60
2018,08,08,00,18,16.60
2018,08,08,00,19,16.60
2018,08,08,00,20,16.60
2018,08,08,00,21,16.60
2018,08,08,00,22,16.60
2018,08,08,00,23,16.60
2018,08,08,00,24,16.60
2018,08,08,00,25,16.50
2018,08,08,00,26,16.50
2018,08,08,00,27,16.50
2018,08,08,00,28,16.50
2018,08,08,00,29,16.50
2018,08,08,00,30,16.50
2018,08,08,00,31,16.40
2018,08,08,00,32,16.40
2018,08,08,00,33,16.40
2018,08,08,00,34,16.40
2018,08,08,00,35,16.40
2018,08,08,00,36,16.40
2018,08,08,00,37,16.40
2018,08,08,00,38,16.40
2018,08,08,00,39,16.40
2018,08,08,00,40,16.40
2018,08,08,00,41,16.40
2018,08,08,00,42,16.40
2018,08,08,00,43,16.40
2018,08,08,00,44,16.40
2018,08,08,00,45,16.40
2018,08,08,00,46,16.40
2018,08,08,00,47,16.40
2018,08,08,00,48,16.40
2018,08,08,00,49,16.40
2018,08,08,00,50,16.40
2018,08,08,00,51,16.40
2018,08,08,00,52,16.40
2018,08,08,00,53,16.40
2018,08,08,00,54,16.40
2018,08,08,00,55,16.40
2018,08,08,00,56,16.40
2018,08,08,00,57,16.40
2018,08,08,00,58,16.40
2018,08,08,00,59,16.40
2018,08,08,01,00,16.40
2018,08,08,01,01,16.40
2018,08,08,01,02,16.40
2018,08,08,01,03,16.40
2018,08,08,01,04,16.40
2018,08,08,01,05,16.40
2018,08,08,01,06,16.40
2018,08,08,01,07,16.40
2018,08,08,01,08,16.40
2018,08,08,01,09,16.40
2018,08,08,01,10,16.40
2018,08,08,01,11,16.40
2018,08,08,01,12,16.40
2018,08,08,01,13,16.40
2018,08,08,01,14,16.50
2018,08,08,01,15,16.50
2018,08,08,01,16,16.50
2018,08,08,01,17,16.50
2018,08,08,01,18,16.50
2018,08,08,01,19,16.50
2018,08,08,01,20,16.50
2018,08,08,01,21,16.50
2018,08,08,01,22,16.50
2018,08,08,01,23,16.50
2018,08,08,01,24,16.50
2018,08,08,01,25,16.50
2018,08,08,01,26,16.50
2018,08,08,01,27,16.50
2018,08,08,01,28,16.50
2018,08,08,01,29,16.40
2018,08,08,01,30,16.40
2018,08,08,01,31,16.40
2018,08,08,01,32,16.40
2018,08,08,01,33,16.40
2018,08,08,01,34,16.40
2018,08,08,01,35,16.40
2018,08,08,01,36,16.40
2018,08,08,01,37,16.40
2018,08,08,01,38,16.30
2018,08,08,01,39,16.30
2018,08,08,01,40,16.30
2018,08,08,01,41,16.30
2018,08,08,01,42,16.30
2018,08,08,01,43,16.30
2018,08,08,01,44,16.20
2018,08,08,01,45,16.20
2018,08,08,01,46,16.20
2018,08,08,01,47,16.20
2018,08,08,01,48,16.20
2018,08,08,01,49,16.10
2018,08,08,01,50,16.10
2018,08,08,01,51,16.10
2018,08,08,01,52,16.10
2018,08,08,01,53,16.10
2018,08,08,01,54,16.00
2018,08,08,01,55,16.00
2018,08,08,01,56,16.00
2018,08,08,01,57,15.90
2018,08,08,01,58,15.90
2018,08,08,01,59,15.90
2018,08,08,02,00,15.90
2018,08,08,02,01,15.90
2018,08,08,02,02,15.80
2018,08,08,02,03,15.80
2018,08,08,02,04,15.80
2018,08,08,02,05,15.80
2018,08,08,02,06,15.80
2018,08,08,02,07,15.80
2018,08,08,02,08,15.80
2018,08,08,02,09,15.80
2018,08,08,02,10,15.80
2018,08,08,02,11,15.80
2018,08,08,02,12,15.80
2018,08,08,02,13,15.80
2018,08,08,02,14,15.80
2018,08,08,02,15,15.80
2018,08,08,02,16,15.80
2018,08,08,02,17,15.80
2018,08,08,02,18,15.80
2018,08,08,02,19,15.80
2018,08,08,02,20,15.80
2018,08,08,02,21,15.80
2018,08,08,02,22,15.80
2018,08,08,02,23,15.80
2018,08,08,02,24,15.80
2018,08,08,02,25,15.80
2018,08,08,02,26,15.80
2018,08,08,02,27,15.90
2018,08,08,02,28,15.90
2018,08,08,02,29,15.90
2018,08,08,02,30,15.90
2018,08,08,02,31,15.90
2018,08,08,02,32,15.90
2018,08,08,02,33,16.00
2018,08,08,02,34,15.90
2018,08,08,02,35,15.90
2018,08,08,02,36,15.90
2018,08,08,02,37,15.90
2018,08,08,02,38,15.90
2018,08,08,02,39,15.90
2018,08,08,02,40,15.90
2018,08,08,02,41,15.90
2018,08,08,02,42,15.90
2018,08,08,02,43,15.80
2018,08,08,02,44,15.80
2018,08,08,02,45,15.80
2018,08,08,02,46,15.80
2018,08,08,02,47,15.80
2018,08,08,02,48,15.70
2018,08,08,02,49,15.70
2018,08,08,02,50,15.70
2018,08,08,02,51,15.70
2018,08,08,02,52,15.70
2018,08,08,02,53,15.70
2018,08,08,02,54,15.60
2018,08,08,02,55,15.60
2018,08,08,02,56,15.60
2018,08,08,02,57,15.60
2018,08,08,02,58,15.60
2018,08,08,02,59,15.60
2018,08,08,03,00,15.60
2018,08,08,03,01,15.60
2018,08,08,03,02,15.60
2018,08,08,03,03,15.50
2018,08,08,03,04,15.50
2018,08,08,03,05,15.50
2018,08,08,03,06,15.50
2018,08,08,03,07,15.40
2018,08,08,03,08,15.40
2018,08,08,03,09,15.40
2018,08,08,03,10,15.40
2018,08,08,03,11,15.40
2018,08,08,03,12,15.40
2018,08,08,03,13,15.40
2018,08,08,03,14,15.40
2018,08,08,03,15,15.40
2018,08,08,03,16,15.40
2018,08,08,03,17,15.40
2018,08,08,03,18,15.40
2018,08,08,03,19,15.40
2018,08,08,03,20,15.40
2018,08,08,03,21,15.40
2018,08,08,03,22,15.40
2018,08,08,03,23,15.40
2018,08,08,03,24,15.30
2018,08,08,03,25,15.30
2018,08,08,03,26,15.30
2018,08,08,03,27,15.30
2018,08,08,03,28,15.30
2018,08,08,03,29,15.30
2018,08,08,03,30,15.30
2018,08,08,03,31,15.30
2018,08,08,03,32,15.30
2018,08,08,03,33,15.30
2018,08,08,03,34,15.30
2018,08,08,03,35,15.30
2018,08,08,03,36,15.30
2018,08,08,03,37,15.30
2018,08,08,03,38,15.30
2018,08,08,03,39,15.30
2018,08,08,03,40,15.30
2018,08,08,03,41,15.30
2018,08,08,03,42,15.30
2018,08,08,03,43,15.30
2018,08,08,03,44,15.30
2018,08,08,03,45,15.30
2018,08,08,03,46,15.30
2018,08,08,03,47,15.30
2018,08,08,03,48,15.30
2018,08,08,03,49,15.30
2018,08,08,03,50,15.30
2018,08,08,03,51,15.30
2018,08,08,03,52,15.30
2018,08,08,03,53,15.30
2018,08,08,03,54,15.30
2018,08,08,03,55,15.40
2018,08,08,03,56,15.40
2018,08,08,03,57,15.40
2018,08,08,03,58,15.40
2018,08,08,03,59,15.40
2018,08,08,04,00,15.40
2018,08,08,04,01,15.40
2018,08,08,04,02,15.40
2018,08,08,04,03,15.50
2018,08,08,04,04,15.50
2018,08,08,04,05,15.50
2018,08,08,04,06,15.60
2018,08,08,04,07,15.60
2018,08,08,04,08,15.60
2018,08,08,04,09,15.60
2018,08,08,04,10,15.70
2018,08,08,04,11,15.70
2018,08,08,04,12,15.70
2018,08,08,04,13,15.80
2018,08,08,04,14,15.80
2018,08,08,04,15,15.80
2018,08,08,04,16,15.80
2018,08,08,04,17,15.90
2018,08,08,04,18,15.90
2018,08,08,04,19,15.90
2018,08,08,04,20,15.90
2018,08,08,04,21,16.00
2018,08,08,04,22,16.00
2018,08,08,04,23,16.10
2018,08,08,04,24,16.10
2018,08,08,04,25,16.10
2018,08,08,04,26,16.10
2018,08,08,04,27,16.20
2018,08,08,04,28,16.20
2018,08,08,04,29,16.20
2018,08,08,04,30,16.20
2018,08,08,04,31,16.20
2018,08,08,04,32,16.20
2018,08,08,04,33,16.30
2018,08,08,04,34,16.30
2018,08,08,04,35,16.30
2018,08,08,04,36,16.30
2018,08,08,04,37,16.30
2018,08,08,04,38,16.30
2018,08,08,04,39,16.40
2018,08,08,04,40,16.40
2018,08,08,04,41,16.40
2018,08,08,04,42,16.40
2018,08,08,04,43,16.40
2018,08,08,04,44,16.40
2018,08,08,04,45,16.50
2018,08,08,04,46,16.50
2018,08,08,04,47,16.50
2018,08,08,04,48,16.60
2018,08,08,04,49,16.60
2018,08,08,04,50,16.60
2018,08,08,04,51,16.70
2018,08,08,04,52,16.70
2018,08,08,04,53,16.70
2018,08,08,04,54,16.70
2018,08,08,04,55,16.70
2018,08,08,04,56,16.70
2018,08,08,04,57,16.80
2018,08,08,04,58,16.80
2018,08,08,04,59,16.80
2018,08,08,05,00,16.80
2018,08,08,05,01,16.80
2018,08,08,05,02,16.80
2018,08,08,05,03,16.80
2018,08,08,05,04,16.80
2018,08,08,05,05,16.80
2018,08,08,05,06,16.80
2018,08,08,05,07,16.80
2018,08,08,05,08,16.80
2018,08,08,05,09,16.70
2018,08,08,05,10,16.70
2018,08,08,05,11,16.70
2018,08,08,05,12,16.70
2018,08,08,05,13,16.70
2018,08,08,05,14,16.70
2018,08,08,05,15,16.70
2018,08,08,05,16,16.70
2018,08,08,05,17,16.70
2018,08,08,05,18,16.70
2018,08,08,05,19,16.70
2018,08,08,05,20,16.70
2018,08,08,05,21,16.70
2018,08,08,05,22,16.70
2018,08,08,05,23,16.70
2018,08,08,05,24,16.80
2018,08,08,05,25,16.80
2018,08,08,05,26,16.80
2018,08,08,05,27,16.80
2018,08,08,05,28,16.80
2018,08,08,05,29,16.80
2018,08,08,05,30,16.90
2018,08,08,05,31,16.90
2018,08,08,05,32,16.90
2018,08,08,05,33,16.90
2018,08,08,05,34,16.90
2018,08,08,05,35,16.90
2018,08,08,05,36,16.90
2018,08,08,05,37,16.90
2018,08,08,05,38,16.90
2018,08,08,05,39,16.90
2018,08,08,05,40,16.90
2018,08,08,05,41,16.90
2018,08,08,05,42,16.90
2018,08,08,05,43,16.90
2018,08,08,05,44,16.90
2018,08,08,05,45,16.90
2018,08,08,05,46,16.80
2018,08,08,05,47,16.80
2018,08,08,05,48,16.80
2018,08,08,05,49,16.80
2018,08,08,05,50,16.80
2018,08,08,05,51,16.80
2018,08,08,05,52,16.80
2018,08,08,05,53,16.70
2018,08,08,05,54,16.70
2018,08,08,05,55,16.70
2018,08,08,05,56,16.70
2018,08,08,05,57,16.70
2018,08,08,05,58,16.60
2018,08,08,05,59,16.60
2018,08,08,06,00,16.60
2018,08,08,06,01,16.60
2018,08,08,06,02,16.60
2018,08,08,06,03,16.60
2018,08,08,06,04,16.60
2018,08,08,06,05,16.60
2018,08,08,06,06,16.60
2018,08,08,06,07,16.60
2018,08,08,06,08,16.50
2018,08,08,06,09,16.50
2018,08,08,06,10,16.50
2018,08,08,06,11,16.50
2018,08,08,06,12,16.50
2018,08,08,06,13,16.50
2018,08,08,06,14,16.50
2018,08,08,06,15,16.40
2018,08,08,06,16,16.40
2018,08,08,06,17,16.40
2018,08,08,06,18,16.40
2018,08,08,06,19,16.40
2018,08,08,06,20,16.40
2018,08,08,06,21,16.40
2018,08,08,06,22,16.30
2018,08,08,06,23,16.30
2018,08,08,06,24,16.30
2018,08,08,06,25,16.30
2018,08,08,06,26,16.30
2018,08,08,06,27,16.30
2018,08,08,06,28,16.40
2018,08,08,06,29,16.40
2018,08,08,06,30,16.40
2018,08,08,06,31,16.40
2018,08,08,06,32,16.40
2018,08,08,06,33,16.50
2018,08,08,06,34,16.50
2018,08,08,06,35,16.50
2018,08,08,06,36,16.60
2018,08,08,06,37,16.60
2018,08,08,06,38,16.60
2018,08,08,06,39,16.60
2018,08,08,06,40,16.60
2018,08,08,06,41,16.60
2018,08,08,06,42,16.60
2018,08,08,06,43,16.60
2018,08,08,06,44,16.60
2018,08,08,06,45,16.70
2018,08,08,06,46,16.70
2018,08,08,06,47,16.70
2018,08,08,06,48,16.70
2018,08,08,06,49,16.70
2018,08,08,06,50,16.70
2018,08,08,06,51,16.70
2018,08,08,06,52,16.70
2018,08,08,06,53,16.70
2018,08,08,06,54,16.70
2018,08,08,06,55,16.70
2018,08,08,06,56,16.70
2018,08,08,06,57,16.70
2018,08,08,06,58,16.70
2018,08,08,06,59,16.70
2018,08,08,07,00,16.70
2018,08,08,07,01,16.70
2018,08,08,07,02,16.70
2018,08,08,07,03,16.70
2018,08,08,07,04,16.70
2018,08,08,07,05,16.70
2018,08,08,07,06,16.80
2018,08,08,07,07,16.80
2018,08,08,07,08,16.80
2018,08,08,07,09,16.80
2018,08,08,07,10,16.90
2018,08,08,07,11,16.90
2018,08,08,07,12,17.00
2018,08,08,07,13,17.00
2018,08,08,07,14,17.10
2018,08,08,07,15,17.20
2018,08,08,07,16,17.30
2018,08,08,07,17,17.40
2018,08,08,07,18,17.50
2018,08,08,07,19,17.60
2018,08,08,07,20,17.70
2018,08,08,07,21,17.90
2018,08,08,07,22,18.00
2018,08,08,07,23,18.20
2018,08,08,07,24,18.30
2018,08,08,07,25,18.40
2018,08,08,07,26,18.60
2018,08,08,07,27,18.70
2018,08,08,07,28,18.80
2018,08,08,07,29,19.00
2018,08,08,07,30,19.20
2018,08,08,07,31,19.40
2018,08,08,07,32,19.50
2018,08,08,07,33,19.70
2018,08,08,07,34,19.80
2018,08,08,07,35,19.90
2018,08,08,07,36,20.10
2018,08,08,07,37,20.20
2018,08,08,07,38,20.30
2018,08,08,07,39,20.50
2018,08,08,07,40,20.60
2018,08,08,07,41,20.80
2018,08,08,07,42,20.90
2018,08,08,07,43,21.10
2018,08,08,07,44,21.20
2018,08,08,07,45,21.30
2018,08,08,07,46,21.50
2018,08,08,07,47,21.60
2018,08,08,07,48,21.80
2018,08,08,07,49,21.90
2018,08,08,07,50,22.00
2018,08,08,07,51,22.20
2018,08,08,07,52,22.30
2018,08,08,07,53,22.40
2018,08,08,07,54,22.50
2018,08,08,07,55,22.60
2018,08,08,07,56,22.70
2018,08,08,07,57,22.80
2018,08,08,07,58,22.90
2018,08,08,07,59,23.00
2018,08,08,08,00,23.20
2018,08,08,08,01,23.30
2018,08,08,08,02,23.40
2018,08,08,08,03,23.50
2018,08,08,08,04,23.60
2018,08,08,08,05,23.70
2018,08,08,08,06,23.80
2018,08,08,08,07,24.00
2018,08,08,08,08,24.10
2018,08,08,08,09,24.20
2018,08,08,08,10,24.30
2018,08,08,08,11,24.30
2018,08,08,08,12,24.40
2018,08,08,08,13,24.40
2018,08,08,08,14,24.40
2018,08,08,08,15,24.50
2018,08,08,08,16,24.50
2018,08,08,08,17,24.50
2018,08,08,08,18,24.50
2018,08,08,08,19,24.50
2018,08,08,08,20,24.40
2018,08,08,08,21,24.40
2018,08,08,08,22,24.30
2018,08,08,08,23,24.30
2018,08,08,08,24,24.30
2018,08,08,08,25,24.20
2018,08,08,08,26,24.00
2018,08,08,08,27,23.90
2018,08,08,08,28,23.80
2018,08,08,08,29,23.70
2018,08,08,08,30,23.60
2018,08,08,08,31,23.50
2018,08,08,08,32,23.40
2018,08,08,08,33,23.30
2018,08,08,08,34,23.30
2018,08,08,08,35,23.20
2018,08,08,08,36,23.20
2018,08,08,08,37,23.20
2018,08,08,08,38,23.20
2018,08,08,08,39,23.20
2018,08,08,08,40,23.30
2018,08,08,08,41,23.30
2018,08,08,08,42,23.30
2018,08,08,08,43,23.40
2018,08,08,08,44,23.50
2018,08,08,08,45,23.60
2018,08,08,08,46,23.70
2018,08,08,08,47,23.80
2018,08,08,08,48,23.80
2018,08,08,08,49,23.90
2018,08,08,08,50,24.00
2018,08,08,08,51,24.00
2018,08,08,08,52,24.10
2018,08,08,08,53,24.20
2018,08,08,08,54,24.20
2018,08,08,08,55,24.30
2018,08,08,08,56,24.40
2018,08,08,08,57,24.40
2018,08,08,08,58,24.50
2018,08,08,08,59,24.60
2018,08,08,09,00,24.70
2018,08,08,09,01,24.80
2018,08,08,09,02,24.80
2018,08,08,09,03,24.90
2018,08,08,09,04,25.00
2018,08,08,09,05,25.00
2018,08,08,09,06,25.10
2018,08,08,09,07,25.20
2018,08,08,09,08,25.20
2018,08,08,09,09,25.30
2018,08,08,09,10,25.30
2018,08,08,09,11,25.30
2018,08,08,09,12,25.40
2018,08,08,09,13,25.40
2018,08,08,09,14,25.40
2018,08,08,09,15,25.40
2018,08,08,09,16,25.40
2018,08,08,09,17,25.40
2018,08,08,09,18,25.40
2018,08,08,09,19,25.40
2018,08,08,09,20,25.40
2018,08,08,09,21,25.40
2018,08,08,09,22,25.30
2018,08,08,09,23,25.30
2018,08,08,09,24,25.30
2018,08,08,09,25,25.30
2018,08,08,09,26,25.30
2018,08,08,09,27,25.30
2018,08,08,09,28,25.30
2018,08,08,09,29,25.30
2018,08,08,09,30,25.30
2018,08,08,09,31,25.30
2018,08,08,09,32,25.30
2018,08,08,09,33,25.30
2018,08,08,09,34,25.30
2018,08,08,09,35,25.30
2018,08,08,09,36,25.40
2018,08,08,09,37,25.40
2018,08,08,09,38,25.40
2018,08,08,09,39,25.40
2018,08,08,09,40,25.40
2018,08,08,09,41,25.40
2018,08,08,09,42,25.30
2018,08,08,09,43,25.30
2018,08,08,09,44,25.30
2018,08,08,09,45,25.30
2018,08,08,09,46,25.30
2018,08,08,09,47,25.30
2018,08,08,09,48,25.30
2018,08,08,09,49,25.30
2018,08,08,09,50,25.30
2018,08,08,09,51,25.30
2018,08,08,09,52,25.30
2018,08,08,09,53,25.30
2018,08,08,09,54,25.30
2018,08,08,09,55,25.40
2018,08,08,09,56,25.40
2018,08,08,09,57,25.40
2018,08,08,09,58,25.40
2018,08,08,09,59,25.40
2018,08,08,10,00,25.40
2018,08,08,10,01,25.40
2018,08,08,10,02,25.50
2018,08,08,10,03,25.50
2018,08,08,10,04,25.60
2018,08,08,10,05,25.60
2018,08,08,10,06,25.60
2018,08,08,10,07,25.60
2018,08,08,10,08,25.70
2018,08,08,10,09,25.70
2018,08,08,10,10,25.70
2018,08,08,10,11,25.80
2018,08,08,10,12,25.80
2018,08,08,10,13,25.80
2018,08,08,10,14,25.90
2018,08,08,10,15,25.90
2018,08,08,10,16,25.90
2018,08,08,10,17,25.90
2018,08,08,10,18,25.90
2018,08,08,10,19,25.90
2018,08,08,10,20,25.90
2018,08,08,10,21,25.90
2018,08,08,10,22,25.80
2018,08,08,10,23,25.80
2018,08,08,10,24,25.70
2018,08,08,10,25,25.70
2018,08,08,10,26,25.70
2018,08,08,10,27,25.80
2018,08,08,10,28,25.80
2018,08,08,10,29,25.80
2018,08,08,10,30,25.90
2018,08,08,10,31,25.90
2018,08,08,10,32,26.00
2018,08,08,10,33,26.10
2018,08,08,10,34,26.10
2018,08,08,10,35,26.10
2018,08,08,10,36,26.20
2018,08,08,10,37,26.20
2018,08,08,10,38,26.30
2018,08,08,10,39,26.30
2018,08,08,10,40,26.30
2018,08,08,10,41,26.30
2018,08,08,10,42,26.20
2018,08,08,10,43,26.20
2018,08,08,10,44,26.20
2018,08,08,10,45,26.20
2018,08,08,10,46,26.20
2018,08,08,10,47,26.20
2018,08,08,10,48,26.20
2018,08,08,10,49,26.20
2018,08,08,10,50,26.30
2018,08,08,10,51,26.30
2018,08,08,10,52,26.30
2018,08,08,10,53,26.30
2018,08,08,10,54,26.30
2018,08,08,10,55,26.40
2018,08,08,10,56,26.40
2018,08,08,10,57,26.50
2018,08,08,10,58,26.50
2018,08,08,10,59,26.60
2018,08,08,11,00,26.60
2018,08,08,11,01,26.70
2018,08,08,11,02,26.80
2018,08,08,11,03,26.90
2018,08,08,11,04,27.00
2018,08,08,11,05,27.10
2018,08,08,11,06,27.20
2018,08,08,11,07,27.30
2018,08,08,11,08,27.30
2018,08,08,11,09,27.40
2018,08,08,11,10,27.40
2018,08,08,11,11,27.30
2018,08,08,11,12,27.30
2018,08,08,11,13,27.30
2018,08,08,11,14,27.30
2018,08,08,11,15,27.30
2018,08,08,11,16,27.30
2018,08,08,11,17,27.40
2018,08,08,11,18,27.40
2018,08,08,11,19,27.40
2018,08,08,11,20,27.50
2018,08,08,11,21,27.50
2018,08,08,11,22,27.50
2018,08,08,11,23,27.40
2018,08,08,11,24,27.30
2018,08,08,11,25,27.30
2018,08,08,11,26,27.30
2018,08,08,11,27,27.30
2018,08,08,11,28,27.30
2018,08,08,11,29,27.40
2018,08,08,11,30,27.40
2018,08,08,11,31,27.40
2018,08,08,11,32,27.40
2018,08,08,11,33,27.40
2018,08,08,11,34,27.40
2018,08,08,11,35,27.40
2018,08,08,11,36,27.40
2018,08,08,11,37,27.40
2018,08,08,11,38,27.40
2018,08,08,11,39,27.40
2018,08,08,11,40,27.40
2018,08,08,11,41,27.40
2018,08,08,11,42,27.50
2018,08,08,11,43,27.60
2018,08,08,11,44,27.60
2018,08,08,11,45,27.60
2018,08,08,11,46,27.60
2018,08,08,11,47,27.60
2018,08,08,11,48,27.60
2018,08,08,11,49,27.60
2018,08,08,11,50,27.60
2018,08,08,11,51,27.60
2018,08,08,11,52,27.70
2018,08,08,11,53,27.70
2018,08,08,11,54,27.80
2018,08,08,11,55,27.90
2018,08,08,11,56,28.00
2018,08,08,11,57,28.20
2018,08,08,11,58,28.20
2018,08,08,11,59,28.30
2018,08,08,12,00,28.30
2018,08,08,12,01,28.40
2018,08,08,12,02,28.40
2018,08,08,12,03,28.40
2018,08,08,12,04,28.50
2018,08,08,12,05,28.50
2018,08,08,12,06,28.60
2018,08,08,12,07,28.60
2018,08,08,12,08,28.70
2018,08,08,12,09,28.70
2018,08,08,12,10,28.80
2018,08,08,12,11,28.80
2018,08,08,12,12,28.80
2018,08,08,12,13,28.90
2018,08,08,12,14,28.90
2018,08,08,12,15,29.00
2018,08,08,12,16,29.00
2018,08,08,12,17,29.00
2018,08,08,12,18,29.00
2018,08,08,12,19,29.00
2018,08,08,12,20,29.00
2018,08,08,12,21,28.90
2018,08,08,12,22,28.90
2018,08,08,12,23,28.80
2018,08,08,12,24,28.80
2018,08,08,12,25,28.80
2018,08,08,12,26,28.80
2018,08,08,12,27,28.90
2018,08,08,12,28,28.90
2018,08,08,12,29,28.90
2018,08,08,12,30,28.90
2018,08,08,12,31,28.90
2018,08,08,12,32,29.00
2018,08,08,12,33,28.90
2018,08,08,12,34,28.90
2018,08,08,12,35,29.00
2018,08,08,12,36,29.00
2018,08,08,12,37,29.00
2018,08,08,12,38,29.10
2018,08,08,12,39,29.10
2018,08,08,12,40,29.10
2018,08,08,12,41,29.10
2018,08,08,12,42,29.20
2018,08,08,12,43,29.20
2018,08,08,12,44,29.20
2018,08,08,12,45,29.20
2018,08,08,12,46,29.20
2018,08,08,12,47,29.20
2018,08,08,12,48,29.20
2018,08,08,12,49,29.30
2018,08,08,12,50,29.30
2018,08,08,12,51,29.20
2018,08,08,12,52,29.20
2018,08,08,12,53,29.20
2018,08,08,12,54,29.10
2018,08,08,12,55,29.10
2018,08,08,12,56,29.10
2018,08,08,12,57,29.10
2018,08,08,12,58,29.10
2018,08,08,12,59,29.10
2018,08,08,13,00,29.10
2018,08,08,13,01,29.10
2018,08,08,13,02,29.10
2018,08,08,13,03,29.10
2018,08,08,13,04,29.20
2018,08,08,13,05,29.20
2018,08,08,13,06,29.20
2018,08,08,13,07,29.20
2018,08,08,13,08,29.20
2018,08,08,13,09,29.30
2018,08,08,13,10,29.30
2018,08,08,13,11,29.30
2018,08,08,13,12,29.30
2018,08,08,13,13,29.30
2018,08,08,13,14,29.30
2018,08,08,13,15,29.20
2018,08,08,13,16,29.30
2018,08,08,13,17,29.30
2018,08,08,13,18,29.30
2018,08,08,13,19,29.30
2018,08,08,13,20,29.30
2018,08,08,13,21,29.40
2018,08,08,13,22,29.40
2018,08,08,13,23,29.40
2018,08,08,13,24,29.50
2018,08,08,13,25,29.50
2018,08,08,13,26,29.60
2018,08,08,13,27,29.70
2018,08,08,13,28,29.70
2018,08,08,13,29,29.80
2018,08,08,13,30,29.80
2018,08,08,13,31,29.80
2018,08,08,13,32,29.80
2018,08,08,13,33,29.80
2018,08,08,13,34,29.70
2018,08,08,13,35,29.70
2018,08,08,13,36,29.70
2018,08,08,13,37,29.60
2018,08,08,13,38,29.60
2018,08,08,13,39,29.50
2018,08,08,13,40,29.40
2018,08,08,13,41,29.40
2018,08,08,13,42,29.30
2018,08,08,13,43,29.30
2018,08,08,13,44,29.30
2018,08,08,13,45,29.30
2018,08,08,13,46,29.30
2018,08,08,13,47,29.30
2018,08,08,13,48,29.30
2018,08,08,13,49,29.30
2018,08,08,13,50,29.30
2018,08,08,13,51,29.30
2018,08,08,13,52,29.30
2018,08,08,13,53,29.30
2018,08,08,13,54,29.30
2018,08,08,13,55,29.30
2018,08,08,13,56,29.20
2018,08,08,13,57,29.20
2018,08,08,13,58,29.20
2018,08,08,13,59,29.20
2018,08,08,14,00,29.20
2018,08,08,14,01,29.10
2018,08,08,14,02,29.10
2018,08,08,14,03,29.00
2018,08,08,14,04,29.00
2018,08,08,14,05,28.90
2018,08,08,14,06,28.90
2018,08,08,14,07,28.90
2018,08,08,14,08,28.90
2018,08,08,14,09,29.00
2018,08,08,14,10,29.00
2018,08,08,14,11,29.10
2018,08,08,14,12,29.20
2018,08,08,14,13,29.30
2018,08,08,14,14,29.40
2018,08,08,14,15,29.50
2018,08,08,14,16,29.50
2018,08,08,14,17,29.60
2018,08,08,14,18,29.60
2018,08,08,14,19,29.60
2018,08,08,14,20,29.60
2018,08,08,14,21,29.70
2018,08,08,14,22,29.70
2018,08,08,14,23,29.80
2018,08,08,14,24,29.80
2018,08,08,14,25,29.80
2018,08,08,14,26,29.80
2018,08,08,14,27,29.80
2018,08,08,14,28,29.80
2018,08,08,14,29,29.90
2018,08,08,14,30,29.90
2018,08,08,14,31,30.00
2018,08,08,14,32,30.10
2018,08,08,14,33,30.10
2018,08,08,14,34,30.20
2018,08,08,14,35,30.30
2018,08,08,14,36,30.30
2018,08,08,14,37,30.40
2018,08,08,14,38,30.40
2018,08,08,14,39,30.40
2018,08,08,14,40,30.50
2018,08,08,14,41,30.50
2018,08,08,14,42,30.60
2018,08,08,14,43,30.60
2018,08,08,14,44,30.60
2018,08,08,14,45,30.70
2018,08,08,14,46,30.70
2018,08,08,14,47,30.70
2018,08,08,14,48,30.70
2018,08,08,14,49,30.80
2018,08,08,14,50,30.80
2018,08,08,14,51,30.80
2018,08,08,14,52,30.80
2018,08,08,14,53,30.80
2018,08,08,14,54,30.80
2018,08,08,14,55,30.70
2018,08,08,14,56,30.70
2018,08,08,14,57,30.70
2018,08,08,14,58,30.80
2018,08,08,14,59,30.80
2018,08,08,15,00,30.80
2018,08,08,15,01,30.90
2018,08,08,15,02,30.90
2018,08,08,15,03,30.90
2018,08,08,15,04,30.90
2018,08,08,15,05,31.00
2018,08,08,15,06,31.00
2018,08,08,15,07,31.00
2018,08,08,15,08,31.10
2018,08,08,15,09,31.10
2018,08,08,15,10,31.20
2018,08,08,15,11,31.10
2018,08,08,15,12,31.10
2018,08,08,15,13,31.10
2018,08,08,15,14,31.00
2018,08,08,15,15,31.00
2018,08,08,15,16,30.90
2018,08,08,15,17,30.90
2018,08,08,15,18,30.80
2018,08,08,15,19,30.80
2018,08,08,15,20,30.70
2018,08,08,15,21,30.70
2018,08,08,15,22,30.60
2018,08,08,15,23,30.50
2018,08,08,15,24,30.40
2018,08,08,15,25,30.30
2018,08,08,15,26,30.30
2018,08,08,15,27,30.30
2018,08,08,15,28,30.20
2018,08,08,15,29,30.20
2018,08,08,15,30,30.20
2018,08,08,15,31,30.20
2018,08,08,15,32,30.20
2018,08,08,15,33,30.20
2018,08,08,15,34,30.10
2018,08,08,15,35,30.10
2018,08,08,15,36,30.10
2018,08,08,15,37,30.10
2018,08,08,15,38,30.20
2018,08,08,15,39,30.20
2018,08,08,15,40,30.30
2018,08,08,15,41,30.30
2018,08,08,15,42,30.40
2018,08,08,15,43,30.40
2018,08,08,15,44,30.40
2018,08,08,15,45,30.40
2018,08,08,15,46,30.40
2018,08,08,15,47,30.40
2018,08,08,15,48,30.40
2018,08,08,15,49,30.40
2018,08,08,15,50,30.40
2018,08,08,15,51,30.40
2018,08,08,15,52,30.40
2018,08,08,15,53,30.50
2018,08,08,15,54,30.50
2018,08,08,15,55,30.60
2018,08,08,15,56,30.60
2018,08,08,15,57,30.70
2018,08,08,15,58,30.80
2018,08,08,15,59,30.80
2018,08,08,16,00,30.90
2018,08,08,16,01,30.90
2018,08,08,16,02,31.00
2018,08,08,16,03,31.00
2018,08,08,16,04,31.10
2018,08,08,16,05,31.10
2018,08,08,16,06,31.00
2018,08,08,16,07,30.90
2018,08,08,16,08,30.90
2018,08,08,16,09,30.80
2018,08,08,16,10,30.80
2018,08,08,16,11,30.80
2018,08,08,16,12,30.80
2018,08,08,16,13,30.80
2018,08,08,16,14,30.80
2018,08,08,16,15,30.80
2018,08,08,16,16,30.80
2018,08,08,16,17,30.80
2018,08,08,16,18,30.80
2018,08,08,16,19,30.80
2018,08,08,16,20,30.90
2018,08,08,16,21,30.90
2018,08,08,16,22,30.90
2018,08,08,16,23,30.80
2018,08,08,16,24,30.80
2018,08,08,16,25,30.90
2018,08,08,16,26,30.90
2018,08,08,16,27,31.00
2018,08,08,16,28,31.00
2018,08,08,16,29,31.00
2018,08,08,16,30,31.00
2018,08,08,16,31,31.00
2018,08,08,16,32,31.10
2018,08,08,16,33,31.10
2018,08,08,16,34,31.20
2018,08,08,16,35,31.20
2018,08,08,16,36,31.20
2018,08,08,16,37,31.20
2018,08,08,16,38,31.20
2018,08,08,16,39,31.20
2018,08,08,16,40,31.20
2018,08,08,16,41,31.20
2018,08,08,16,42,31.20
2018,08,08,16,43,31.20
2018,08,08,16,44,31.20
2018,08,08,16,45,31.20
2018,08,08,16,46,31.20
2018,08,08,16,47,31.30
2018,08,08,16,48,31.30
2018,08,08,16,49,31.30
2018,08,08,16,50,31.30
2018,08,08,16,51,31.40
2018,08,08,16,52,31.40
2018,08,08,16,53,31.40
2018,08,08,16,54,31.50
2018,08,08,16,55,31.60
2018,08,08,16,56,31.60
2018,08,08,16,57,31.60
2018,08,08,16,58,31.60
2018,08,08,16,59,31.70
2018,08,08,17,00,31.60
2018,08,08,17,01,31.50
2018,08,08,17,02,31.50
2018,08,08,17,03,31.40
2018,08,08,17,04,31.30
2018,08,08,17,05,31.30
2018,08,08,17,06,31.20
2018,08,08,17,07,31.20
2018,08,08,17,08,31.10
2018,08,08,17,09,31.10
2018,08,08,17,10,31.10
2018,08,08,17,11,31.10
2018,08,08,17,12,31.10
2018,08,08,17,13,31.10
2018,08,08,17,14,31.00
2018,08,08,17,15,31.00
2018,08,08,17,16,31.00
2018,08,08,17,17,30.90
2018,08,08,17,18,30.90
2018,08,08,17,19,30.90